Key West, FL

10:25 AM EST on December 10, 2016 (GMT -0500)
Key West Naval Air Station

Weather History for KNQX - November, 2013

Change the Weather History Date:

Sunday, November 3, 2013

  Actual Average Record
Temperature  
Mean Temperature 76 °F -  
Max Temperature 81 °F 82 °F 87 °F (1985)
Min Temperature 73 °F 74 °F 63 °F (1966)
Cooling Degree Days 12    
Growing Degree Days 26 (Base 50)    
Moisture  
Dew Point 62 °F    
Average Humidity 61    
Maximum Humidity 74    
Minimum Humidity 19    
Precipitation  
Precipitation 0.00 in - - ()
Sea Level Pressure  
Sea Level Pressure 29.95 in    
Wind  
Wind Speed 15 mph (NNE)    
Max Wind Speed 20 mph    
Max Gust Speed 28 mph    
Visibility 10 miles    
Events      
Averages and records for this station are not official NWS values.
T = Trace of Precipitation, MM = Missing Value Source: NWS Daily Summary

Daily Weather History Graph

Daily Weather History Graph

Search for Another Location

Airport or City:

Trip Planner

Search our weather history database for the weather conditions in past years. The results will help you decide how hot, cold, wet, or windy it might be!

Date:

Astronomy

Nov. 03, 2013 Rise Set
Actual Time 6:34 AM EST 5:45 PM EST
Civil Twilight 6:11 AM EST 6:08 PM EST
Nautical Twilight 5:44 AM EST 6:35 PM EST
Astronomical Twilight 5:17 AM EST 7:02 PM EST
Moon 6:36 AM EST (11/3) 6:02 PM EST (11/3)
Length of Visible Light 11h 57m
Length of Day
11h 10m
New Moon, 0% of the Moon is Illuminated
Nov 3
New Moon
Nov 10
First Quarter
Nov 17
Full
Nov 25
Last Quarter
Dec 2
New

Hourly Weather History & Observations

Time (EST) Temp. Heat Index Dew Point Humidity Pressure Visibility Wind Dir Wind Speed Gust Speed Precip Events Conditions
12:53 AM 78.1 °F - 69.1 °F 74% 29.92 in 10.0 mi North 11.5 mph - N/A   Partly Cloudy
1:30 AM 77.0 °F - 68.0 °F 74% 29.91 in 10.0 mi North 13.8 mph - N/A   Mostly Cloudy
1:53 AM 77.0 °F - 66.0 °F 69% 29.91 in 10.0 mi North 12.7 mph - N/A   Mostly Cloudy
1:03 AM 77.0 °F - 64.4 °F 65% 29.91 in 10.0 mi North 15.0 mph - N/A   Mostly Cloudy
1:53 AM 77.0 °F - 62.1 °F 60% 29.91 in 10.0 mi North 13.8 mph - N/A   Overcast
2:53 AM 75.0 °F - 64.9 °F 71% 29.91 in 10.0 mi North 18.4 mph 27.6 mph N/A   Overcast
3:53 AM 75.9 °F - 55.9 °F 50% 29.91 in 10.0 mi North 19.6 mph 25.3 mph N/A   Overcast
4:53 AM 75.0 °F - 60.1 °F 60% 29.90 in 10.0 mi North 19.6 mph 25.3 mph N/A   Overcast
5:53 AM 75.0 °F - 60.1 °F 60% 29.93 in 10.0 mi North 15.0 mph 23.0 mph N/A   Overcast
6:53 AM 73.9 °F - 57.9 °F 57% 29.94 in 10.0 mi North 18.4 mph 24.2 mph N/A   Mostly Cloudy
7:53 AM 73.0 °F - 59.0 °F 61% 29.95 in 10.0 mi NNE 12.7 mph 21.9 mph N/A   Mostly Cloudy
8:53 AM 75.9 °F - 63.0 °F 64% 29.97 in 10.0 mi NNE 17.3 mph 25.3 mph N/A   Overcast
9:53 AM 77.0 °F - 64.0 °F 64% 30.00 in 10.0 mi NNE 19.6 mph 25.3 mph N/A   Scattered Clouds
10:53 AM 75.9 °F - 62.1 °F 62% 29.99 in 10.0 mi NNE 19.6 mph 26.5 mph N/A   Scattered Clouds
11:53 AM 78.1 °F - 63.0 °F 60% 29.98 in 10.0 mi NNE 13.8 mph 25.3 mph N/A   Partly Cloudy
12:53 PM 78.1 °F - 62.1 °F 58% 29.96 in 10.0 mi NNE 15.0 mph 21.9 mph N/A   Partly Cloudy
1:53 PM 79.0 °F - 63.0 °F 58% 29.94 in 10.0 mi NNE 16.1 mph 25.3 mph N/A   Scattered Clouds
2:53 PM 80.1 °F 81.7 °F 64.0 °F 58% 29.93 in 10.0 mi NNE 15.0 mph 20.7 mph N/A   Partly Cloudy
3:53 PM 80.1 °F 81.5 °F 63.0 °F 56% 29.92 in 10.0 mi NE 12.7 mph - N/A   Partly Cloudy
4:53 PM 79.0 °F - 64.0 °F 60% 29.93 in 10.0 mi NNE 11.5 mph 18.4 mph N/A   Partly Cloudy
5:53 PM 78.1 °F - 64.9 °F 64% 29.94 in 10.0 mi NNE 12.7 mph - N/A   Partly Cloudy
6:53 PM 78.1 °F - 64.9 °F 64% 29.96 in 10.0 mi NNE 12.7 mph - N/A   Scattered Clouds
7:53 PM 78.1 °F - 66.0 °F 66% 29.98 in 10.0 mi NE 9.2 mph 17.3 mph N/A   Mostly Cloudy
8:53 PM 77.0 °F - 64.9 °F 66% 30.00 in 10.0 mi NE 12.7 mph 20.7 mph N/A   Overcast
9:53 PM 75.9 °F - 63.0 °F 64% 30.00 in 10.0 mi NE 18.4 mph 26.5 mph N/A   Scattered Clouds
10:53 PM 75.0 °F - 30.0 °F 19% 30.00 in 10.0 mi NE 16.1 mph 26.5 mph N/A   Clear